カタログに戻る

CZ-2C DEB

運用中PO
NORAD 37770·DEBRIS·🇨🇳 China

打ち上げ Jul 29, 2011 から Jiuquan Satellite Launch Center

Loading…

次のパス (今後24時間)

TLE

最新Source: Space-Track

元期: Sep 14, 2026, 08:00 UTC

1 37770U 11039F   26257.33366749  .00028962  00000-0  12867-2 0  9994
2 37770  97.9196 196.1901 0029132  58.4417  92.9089 15.21107060807094

AllMySatでCZ-2C DEBをリアルタイム追跡

Download on the App Store